Home > Weather > Poitiers > Past weeks

Flag for France Weather for the Past 2 Weeks in Poitiers, Poitou-Charentes, France

Now
48 °F

Partly sunny.


Feels Like: 43 °F
Forecast: 34 / 57 °F
Wind: 14 mph from North

Location: Poitiers Airport

Current Time: Apr 30, 2016 at 11:18:56 AM

Latest Report: Apr 30, 2016 at 10:30 AM


Visibility: N/A

Pressure: 30.01 "Hg

Humidity: 76%

Dew Point: 41 °F

Location of PoitiersLocation

Historic Weather in Poitiers — Graph

°F

Poitiers Temperature Yesterday

Maximum temperature yesterday: 57 °F (at 4:00 PM)
Minimum temperature yesterday: 34 °F (at 6:30 AM)
Average temperature yesterday: 48 °F

High & Low Weather Summary for the Past Weeks

 TemperatureHumidityPressure
High68 °F (Apr 20, 4:30 PM)100% (Apr 16, 3:30 AM)30.30 "Hg (Apr 16, 3:30 AM)
Low28 °F (Apr 27, 6:00 AM)36% (Apr 18, 6:00 PM)29.68 "Hg (Apr 15, 11:00 PM)
Average50 °F73%30.01 "Hg
* Reported Apr 15 10:00 AM — Apr 30 10:00 AM, Poitiers, Weather by CustomWeather, © 2016

Note: Actual official high and low records may vary slightly from our data, if they occured in-between our weather recording intervals... More about our weather records

Advertising

Poitiers Weather History for the Previous 24 Hours

Scroll right to see more
 ConditionsComfort  
Time TempWeatherWind HumidityBarometerVisibility
10:00 AM
Sat, Apr 30
48 °FBroken clouds.10 mph82%30.01 "HgN/A
9:30 AM48 °FPartly sunny.8 mph82%29.98 "HgN/A
9:00 AM46 °FPartly sunny.2 mph87%29.98 "HgN/A
8:30 AM46 °FScattered clouds.3 mph87%29.98 "HgN/A
8:00 AM45 °FMostly cloudy.5 mph93%29.98 "HgN/A
7:30 AM43 °FPassing clouds.3 mph93%29.98 "HgN/A
7:00 AM43 °FOvercast.3 mph93%29.98 "HgN/A
6:30 AM43 °FClear.3 mph93%29.95 "Hg10 mi
6:00 AM43 °FClear.5 mph93%29.95 "Hg10 mi
5:30 AM45 °FPassing clouds.3 mph87%29.95 "HgN/A
5:00 AM45 °FPassing clouds.5 mph87%29.98 "HgN/A
4:30 AM45 °FClear.5 mph87%29.98 "Hg10 mi
4:00 AM45 °FClear.3 mph87%29.98 "Hg10 mi
3:30 AM45 °FClear.No wind87%29.98 "Hg10 mi
2:30 AM43 °FClear.2 mph93%29.98 "Hg10 mi
1:30 AM43 °FClear.2 mph93%30.01 "Hg10 mi
1:00 AM45 °FClear.3 mph87%30.01 "Hg10 mi
12:30 AM45 °FClear.7 mph87%30.01 "Hg10 mi
12:00 AM46 °FClear.8 mph82%30.01 "Hg10 mi
11:30 PM
Fri, Apr 29
48 °FClear.7 mph76%30.04 "Hg10 mi
11:00 PM48 °FClear.8 mph76%30.04 "Hg10 mi
10:30 PM48 °FClear.9 mph76%30.04 "Hg10 mi
10:00 PM48 °FSunny.7 mph82%30.04 "Hg10 mi
9:30 PM50 °FSunny.8 mph71%30.04 "Hg10 mi
9:00 PM50 °FSunny.9 mph71%30.01 "Hg10 mi
8:30 PM52 °FSunny.12 mph67%30.01 "Hg10 mi
8:00 PM54 °FSunny.12 mph63%30.01 "Hg10 mi
7:30 PM54 °FOvercast.14 mph67%30.01 "HgN/A
7:00 PM54 °FOvercast.10 mph67%30.04 "HgN/A
6:30 PM54 °FBroken clouds.12 mph67%30.04 "HgN/A
6:00 PM54 °FMostly cloudy.14 mph67%30.04 "HgN/A
5:30 PM55 °FMore clouds than sun.14 mph59%30.04 "HgN/A
5:00 PM55 °FOvercast.15 mph63%30.04 "HgN/A
4:30 PM55 °FCloudy.17 mph59%30.04 "HgN/A
4:00 PM57 °FSunny.14 mph55%30.04 "Hg10 mi
3:30 PM54 °FMostly cloudy.10 mph67%30.07 "HgN/A
3:00 PM54 °FOvercast.12 mph67%30.07 "HgN/A
2:30 PM52 °FBroken clouds.14 mph72%30.07 "HgN/A
2:00 PM55 °FOvercast.12 mph63%30.07 "HgN/A
1:30 PM54 °FBroken clouds.14 mph63%30.07 "HgN/A
1:00 PM55 °FOvercast.12 mph67%30.09 "HgN/A
12:30 PM54 °FCloudy.13 mph63%30.09 "HgN/A
12:00 PM54 °FMostly cloudy.14 mph63%30.09 "HgN/A
11:30 AM52 °FBroken clouds.12 mph67%30.09 "HgN/A
11:00 AM52 °FPartly sunny.13 mph67%30.09 "HgN/A
Weather by CustomWeather, © 2016

See weather overviewHow to use our weather pages